Coosa River Whitewater Weather Center

Moon Phase Calendar



Online Cameras

 


      

Current Conditions in Wetumpka
12/9/2022 1:16:07 PM

77°F
Feels Like 76
Clouds
Humidity
56%
Pressure
30.06"
Wind
7.9 mph (W)
Dew Point
60°F
UV Index
2/10 (Low)
Visibility
6 mi

Hourly Forecast

Date & Time Fri, Dec 9
1:00 PM
Fri, Dec 9
2:00 PM
Fri, Dec 9
3:00 PM
Fri, Dec 9
4:00 PM
Fri, Dec 9
5:00 PM
Fri, Dec 9
6:00 PM
Fri, Dec 9
7:00 PM
Fri, Dec 9
8:00 PM
Fri, Dec 9
9:00 PM
Fri, Dec 9
10:00 PM
Fri, Dec 9
11:00 PM
Sat, Dec 10
12:00 AM
Sat, Dec 10
1:00 AM
Sat, Dec 10
2:00 AM
Sat, Dec 10
3:00 AM
Sat, Dec 10
4:00 AM
Sat, Dec 10
5:00 AM
Sat, Dec 10
6:00 AM
Sat, Dec 10
7:00 AM
Sat, Dec 10
8:00 AM
Sat, Dec 10
9:00 AM
Sat, Dec 10
10:00 AM
Sat, Dec 10
11:00 AM
Sat, Dec 10
12:00 PM
Sat, Dec 10
1:00 PM
Sat, Dec 10
2:00 PM
Sat, Dec 10
3:00 PM
Sat, Dec 10
4:00 PM
Sat, Dec 10
5:00 PM
Sat, Dec 10
6:00 PM
Sat, Dec 10
7:00 PM
Sat, Dec 10
8:00 PM
Sat, Dec 10
9:00 PM
Sat, Dec 10
10:00 PM
Sat, Dec 10
11:00 PM
Sun, Dec 11
12:00 AM
Sun, Dec 11
1:00 AM
Sun, Dec 11
2:00 AM
Sun, Dec 11
3:00 AM
Sun, Dec 11
4:00 AM
Sun, Dec 11
5:00 AM
Sun, Dec 11
6:00 AM
Sun, Dec 11
7:00 AM
Sun, Dec 11
8:00 AM
Sun, Dec 11
9:00 AM
Sun, Dec 11
10:00 AM
Sun, Dec 11
11:00 AM
Sun, Dec 11
12:00 PM
Condition
Rain

Clouds

Clouds

Rain

Clouds

Clouds

Clouds

Clouds

Clouds

Clouds

Clouds

Clouds

Clouds

Clouds

Clouds

Clouds

Clouds

Clouds

Clouds

Clouds

Clouds

Clouds

Clouds

Clouds

Clouds

Clouds

Clouds

Clouds

Clouds

Clouds

Clouds

Clouds

Clouds

Clouds

Clouds

Clouds

Clouds

Rain

Rain

Clouds

Clouds

Clouds

Clouds

Clouds

Clouds

Rain

Rain

Rain
Temperature 77°F77°F76°F74°F70°F67°F66°F67°F67°F65°F65°F66°F65°F65°F63°F62°F61°F61°F61°F64°F67°F71°F73°F74°F74°F73°F73°F71°F68°F66°F65°F64°F64°F64°F64°F64°F64°F64°F63°F62°F62°F63°F63°F64°F65°F65°F65°F66°F
Feels Like 76°F77°F76°F74°F70°F67°F67°F67°F67°F66°F65°F66°F66°F65°F64°F62°F62°F61°F61°F64°F68°F71°F73°F74°F74°F74°F73°F71°F68°F66°F65°F65°F64°F64°F64°F65°F64°F64°F64°F63°F63°F63°F64°F65°F65°F66°F66°F66°F
Cloudiness 60%61%64%63%60%56%35%63%74%76%79%82%100%90%66%61%63%67%12%14%22%39%51%57%100%100%100%100%100%100%100%100%100%100%100%100%100%100%100%100%100%100%100%100%100%100%100%100%
Visibility 6 mi6 mi6 mi6 mi6 mi6 mi6 mi6 mi6 mi6 mi6 mi6 mi6 mi6 mi6 mi6 mi6 mi6 mi6 mi6 mi6 mi6 mi6 mi6 mi6 mi6 mi6 mi6 mi6 mi6 mi6 mi6 mi6 mi6 mi6 mi6 mi6 mi6 mi6 mi6 mi6 mi6 mi6 mi6 mi6 mi6 mi6 mi6 mi
Precipitation 55%52%38%39%35%32%1%1%0%0%0%0%0%0%0%0%0%0%0%0%0%0%0%0%23%22%22%18%15%15%0%0%3%5%7%14%42%54%54%46%38%38%17%22%22%35%66%76%
Humidity 56%57%60%68%80%90%92%91%91%95%96%95%94%95%97%97%97%97%96%88%81%74%69%64%64%64%66%72%79%87%90%91%93%93%91%90%91%93%94%98%97%96%96%93%89%89%90%89%
Dew Point 60°F60°F61°F63°F63°F63°F63°F64°F64°F64°F63°F64°F63°F63°F62°F61°F60°F59°F59°F60°F61°F62°F62°F61°F61°F60°F61°F61°F61°F62°F62°F62°F61°F61°F61°F61°F61°F61°F61°F61°F61°F62°F62°F62°F61°F62°F62°F62°F
Pressure 30.06"30.06"30.06"30.06"30.06"30.09"30.09"30.12"30.12"30.12"30.12"30.12"30.12"30.12"30.12"30.12"30.12"30.12"30.15"30.15"30.15"30.18"30.15"30.12"30.09"30.09"30.09"30.09"30.09"30.12"30.12"30.12"30.12"30.12"30.12"30.12"30.09"30.09"30.09"30.09"30.09"30.09"30.09"30.12"30.12"30.09"30.06"30.03"
Wind Speed 7.9 mph7.5 mph6.2 mph5.3 mph4.3 mph4 mph3.7 mph3.5 mph3.5 mph4.1 mph4.2 mph3.6 mph3.2 mph3 mph3.6 mph3.8 mph3.1 mph3.2 mph3.4 mph3.2 mph3.2 mph1.9 mph1.3 mph2.6 mph3.2 mph2.8 mph1.8 mph0.5 mph3.6 mph5.8 mph5.7 mph5.6 mph4.6 mph4.8 mph4.9 mph4.5 mph4.5 mph4.7 mph4.6 mph4.1 mph3.6 mph3.4 mph3.1 mph2.6 mph2.8 mph4.3 mph5.1 mph3.7 mph
Wind
Direction
271°
W
277°
W
287°
WNW
297°
WNW
298°
WNW
307°
NW
317°
NW
317°
NW
320°
NW
325°
NW
326°
NW
334°
NNW
337°
NNW
341°
NNW
348°
NNW
357°
N
14°
NNE
25°
NNE
41°
NE
59°
ENE
75°
ENE
100°
E
184°
S
242°
WSW
259°
W
264°
W
253°
WSW
207°
SSW
101°
E
105°
ESE
111°
ESE
125°
SE
127°
SE
127°
SE
132°
SE
142°
SE
144°
SE
144°
SE
147°
SSE
149°
SSE
153°
SSE
153°
SSE
153°
SSE
187°
S
196°
SSW
194°
SSW
182°
S
181°
S

Daily Forecast

Date High Low Precip. Humidity
Today
Dec 9

Rain
77 °F
62 °F
55%
60%
Saturday
Dec 10

Clouds
74 °F
61 °F
23%
69%
Sunday
Dec 11

Rain
66 °F
60 °F
100%
90%
Monday
Dec 12

Rain
65 °F
59 °F
79%
82%
Tuesday
Dec 13

Rain
62 °F
56 °F
20%
79%
Wednesday
Dec 14

Rain
59 °F
55 °F
100%
91%
Thursday
Dec 15

Rain
57 °F
45 °F
100%
69%
Friday
Dec 16

Clouds
49 °F
40 °F
0%
52%
Saturday
Dec 17

Clouds
43 °F
33 °F
0%
62%
Sunday
Dec 18

Clear
48 °F
29 °F
0%
39%
Monday
Dec 19

Clouds
53 °F
32 °F
0%
39%
Tuesday
Dec 20

Rain
55 °F
44 °F
100%
98%
Wednesday
Dec 21

Rain
53 °F
47 °F
100%
96%
Thursday
Dec 22

Rain
50 °F
45 °F
100%
93%
Friday
Dec 23

Clouds
50 °F
38 °F
0%
56%
Saturday
Dec 24

Rain
56 °F
36 °F
64%
50%

Temperature 8-14 Day Outlook



Precipitation 8-14 Day Outlook




Quick Links
Coosa River Whitewater News
Coosa River Whitewater Photos
Coosa River Whitewater Videos




About Us
Contact Us
Site Map
Search Site
Advertise With Us
   
www.CoosaRiverWhitewater.com
THE COOSA RIVER WHITEWATER WEBSITE

Copyright 2022, Discover Rivers
Privacy    |    Legal